Вернуться в каталог

WGS 9

USA 275

АктивенВоенныеGEO
NORAD 42075·PAYLOAD·🇺🇸 United States

Запущен Mar 19, 2017 с Cape Canaveral Space Force Station

Loading…

TLE

СвежийSource: Space-Track

Эпоха: Sep 14, 2026, 06:54 UTC

1 42075U 17016A   26257.28764436  .00000000  00000-0  00000-0 0  9995
2 42075   0.0211 176.1413 0000114 257.3701  11.3280  1.00268451 34782

Отслеживайте WGS 9 в реальном времени с AllMySat

Download on the App Store